Home   Weather   Soest   Past weeks

Flag for Germany Past Weather in Soest, North Rhine-Westphalia, Germany — Yesterday and Last 2 Weeks

Now
36 °F

Sunny.


Feels Like: 36 °F
Forecast: 25 / 37 °F
Wind: 2 mph from North

Location: Dortmund / Wickede

Current Time: Dec 3, 2016 at 12:43:08 pm

Latest Report: Dec 3, 2016 at 11:50 am


Visibility: 10 mi

Pressure: 30.30 "Hg

Humidity: 75%

Dew Point: 28 °F

Location of SoestLocation

Past Weather in Soest — Graph

°F

Soest Temperature Yesterday

Maximum temperature yesterday: 45 °F (at 12:20 pm)
Minimum temperature yesterday: 30 °F (at 8:50 pm)
Average temperature yesterday: 41 °F

High & Low Weather Summary for the Past Weeks

 TemperatureHumidityPressure
High57 °F (Nov 21, 2:50 pm)93% (Nov 24, 5:20 am)30.57 "Hg (Nov 24, 5:20 am)
Low21 °F (Nov 29, 6:50 am)41% (Nov 30, 12:20 pm)29.30 "Hg (Nov 20, 11:20 am)
Average40 °F76%30.04 "Hg
* Reported Nov 18 11:20 am — Dec 3 11:20 am, Soest, Weather by CustomWeather, © 2016

Note: Actual official high and low records may vary slightly from our data, if they occured in-between our weather recording intervals... More about our weather records

Advertising

Soest Weather History for the Previous 24 Hours

Scroll right to see more
 ConditionsComfort  
Time TempWeatherWind HumidityBarometerVisibility
11:20 am
Sat, Dec 3
34 °FSunny.3 mph81%30.30 "Hg10 mi
10:50 am34 °FSunny.5 mph81%30.30 "Hg10 mi
10:20 am30 °FSunny.3 mph86%30.30 "Hg10 mi
9:50 am28 °FSunny.7 mph86%30.27 "Hg10 mi
8:50 am27 °FSunny.8 mph93%30.27 "Hg10 mi
8:20 am27 °FPassing clouds.10 mph93%30.27 "HgN/A
7:50 am27 °FPassing clouds.5 mph93%30.27 "HgN/A
7:20 am27 °FPassing clouds.9 mph93%30.24 "HgN/A
6:50 am27 °FClear.9 mph86%30.24 "Hg10 mi
6:20 am27 °FPassing clouds.8 mph93%30.24 "HgN/A
5:50 am27 °FPassing clouds.8 mph93%30.24 "HgN/A
5:20 am27 °FClear.9 mph93%30.24 "Hg10 mi
9:50 pm
Fri, Dec 2
34 °FClear.5 mph87%30.21 "Hg10 mi
9:20 pm34 °FClear.5 mph87%30.21 "Hg10 mi
8:50 pm30 °FClear.6 mph86%30.21 "Hg10 mi
8:20 pm34 °FClear.6 mph87%30.21 "Hg10 mi
7:50 pm34 °FClear.5 mph81%30.21 "Hg10 mi
7:20 pm36 °FClear.3 mph70%30.21 "Hg10 mi
6:50 pm37 °FPassing clouds.5 mph70%30.21 "HgN/A
6:20 pm37 °FClear.3 mph75%30.21 "Hg10 mi
5:50 pm39 °FPassing clouds.2 mph70%30.21 "HgN/A
5:20 pm39 °FPassing clouds.2 mph70%30.18 "HgN/A
4:50 pm39 °FPassing clouds.2 mph70%30.18 "HgN/A
4:20 pm39 °FPassing clouds.2 mph70%30.18 "HgN/A
3:50 pm41 °FSunny.2 mph70%30.18 "Hg10 mi
3:20 pm43 °FScattered clouds.2 mph71%30.18 "HgN/A
2:50 pm45 °FPassing clouds.5 mph61%30.18 "HgN/A
2:20 pm45 °FScattered clouds.5 mph61%30.18 "HgN/A
1:50 pm45 °FPassing clouds.3 mph66%30.18 "HgN/A
1:20 pm45 °FScattered clouds.6 mph71%30.18 "HgN/A
12:50 pm45 °FScattered clouds.3 mph71%30.18 "HgN/A
12:20 pm45 °FScattered clouds.5 mph81%30.18 "HgN/A
Weather by CustomWeather, © 2016

See weather overviewHow to use our weather pages